Time,TemperatureF,DewpointF,PressureIn,WindDirection,WindDirectionDegrees,WindSpeedMPH,WindSpeedGustMPH,Humidity,HourlyPrecipIn,Conditions,Clouds,dailyrainin,SolarRadiationWatts/m^2,SoftwareType,DateUTC
2013-09-04 00:11:00,77.3,71.0,30.00,East,87,3.0,7.0,82,0.00,,,0.00,0,weatherlink.com 1.10,2013-09-04 10:11:00,
2013-09-04 00:25:00,77.0,70.0,30.00,East,94,6.0,8.0,80,0.00,,,0.00,0,weatherlink.com 1.10,2013-09-04 10:25:00,
2013-09-04 00:40:00,77.0,70.0,30.00,ESE,105,2.0,8.0,79,0.00,,,0.00,0,weatherlink.com 1.10,2013-09-04 10:40:00,
2013-09-04 00:55:00,76.9,70.0,30.00,East,85,4.0,7.0,80,0.00,,,0.00,0,weatherlink.com 1.10,2013-09-04 10:55:00,
2013-09-04 01:11:00,77.0,70.0,29.99,SE,124,3.0,8.0,80,0.00,,,0.00,0,weatherlink.com 1.10,2013-09-04 11:11:00,
2013-09-04 01:25:00,77.1,70.0,30.00,SE,134,3.0,7.0,79,0.00,,,0.00,0,weatherlink.com 1.10,2013-09-04 11:25:00,
2013-09-04 01:42:00,76.9,70.0,29.99,East,88,1.0,4.0,80,0.00,,,0.00,0,weatherlink.com 1.10,2013-09-04 11:42:00,
2013-09-04 01:57:00,77.1,71.0,29.99,East,86,0.0,4.0,82,0.00,,,0.00,0,weatherlink.com 1.10,2013-09-04 11:57:00,
2013-09-04 02:14:00,77.0,71.0,29.98,East,90,6.0,7.0,81,0.00,,,0.00,0,weatherlink.com 1.10,2013-09-04 12:14:00,
2013-09-04 02:27:00,76.9,71.0,29.98,NE,51,0.0,5.0,81,0.00,,,0.00,0,weatherlink.com 1.10,2013-09-04 12:27:00,
2013-09-04 02:42:00,77.0,70.0,29.98,SE,124,5.0,8.0,80,0.00,,,0.00,0,weatherlink.com 1.10,2013-09-04 12:42:00,
2013-09-04 02:57:00,76.9,70.0,29.98,East,99,2.0,5.0,80,0.00,,,0.00,0,weatherlink.com 1.10,2013-09-04 12:57:00,
2013-09-04 03:12:00,76.8,70.0,29.98,East,96,2.0,5.0,79,0.00,,,0.00,0,weatherlink.com 1.10,2013-09-04 13:12:00,
2013-09-04 03:27:00,76.8,70.0,29.98,East,99,4.0,5.0,80,0.00,,,0.00,0,weatherlink.com 1.10,2013-09-04 13:27:00,
2013-09-04 03:42:00,76.8,70.0,29.98,East,96,0.0,4.0,80,0.00,,,0.00,0,weatherlink.com 1.10,2013-09-04 13:42:00,
2013-09-04 03:57:00,75.6,70.0,29.98,WNW,303,2.0,9.0,83,0.00,,,0.00,0,weatherlink.com 1.10,2013-09-04 13:57:00,
2013-09-04 04:12:00,74.8,70.0,29.97,WSW,245,0.0,3.0,85,0.00,,,0.00,0,weatherlink.com 1.10,2013-09-04 14:12:00,
2013-09-04 04:27:00,75.3,71.0,29.98,ESE,102,3.0,4.0,85,0.00,,,0.00,0,weatherlink.com 1.10,2013-09-04 14:27:00,
2013-09-04 04:42:00,75.8,71.0,29.98,East,96,3.0,5.0,84,0.00,,,0.00,0,weatherlink.com 1.10,2013-09-04 14:42:00,
2013-09-04 04:58:00,76.1,71.0,29.98,ESE,105,2.0,7.0,83,0.00,,,0.00,0,weatherlink.com 1.10,2013-09-04 14:58:00,
2013-09-04 05:13:00,76.2,70.0,29.98,East,94,2.0,7.0,82,0.00,,,0.00,0,weatherlink.com 1.10,2013-09-04 15:13:00,
2013-09-04 05:27:00,76.1,70.0,29.98,East,90,2.0,6.0,82,0.00,,,0.00,0,weatherlink.com 1.10,2013-09-04 15:27:00,
2013-09-04 05:42:00,76.0,70.0,29.98,East,80,3.0,6.0,81,0.00,,,0.00,0,weatherlink.com 1.10,2013-09-04 15:42:00,
2013-09-04 05:57:00,75.9,70.0,29.98,ESE,107,2.0,4.0,81,0.00,,,0.00,0,weatherlink.com 1.10,2013-09-04 15:57:00,
2013-09-04 06:12:00,75.9,69.0,29.98,ESE,104,0.0,4.0,80,0.00,,,0.00,0,weatherlink.com 1.10,2013-09-04 16:12:00,
2013-09-04 06:28:00,76.0,70.0,29.99,East,97,2.0,3.0,82,0.00,,,0.00,25,weatherlink.com 1.10,2013-09-04 16:28:00,
2013-09-04 06:42:00,76.7,70.0,29.99,ESE,102,2.0,4.0,80,0.00,,,0.00,70,weatherlink.com 1.10,2013-09-04 16:42:00,
2013-09-04 06:58:00,78.0,71.0,29.99,ENE,68,1.0,5.0,78,0.00,,,0.00,120,weatherlink.com 1.10,2013-09-04 16:58:00,
2013-09-04 07:12:00,78.7,71.0,29.99,East,80,2.0,4.0,76,0.00,,,0.00,188,weatherlink.com 1.10,2013-09-04 17:12:00,
2013-09-04 07:28:00,79.4,70.0,30.00,ENE,72,1.0,5.0,74,0.00,,,0.00,265,weatherlink.com 1.10,2013-09-04 17:28:00,
2013-09-04 07:43:00,79.8,71.0,30.00,East,81,2.0,-999.0,74,-99.99,,,0.00,327,weatherlink.com 1.10,2013-09-04 17:43:00,
2013-09-04 07:58:00,81.3,72.0,30.01,East,80,2.0,5.0,73,0.00,,,0.00,107,weatherlink.com 1.10,2013-09-04 17:58:00,
2013-09-04 08:13:00,82.2,73.0,30.01,ENE,61,3.0,8.0,73,0.00,,,0.00,462,weatherlink.com 1.10,2013-09-04 18:13:00,
2013-09-04 08:28:00,82.2,72.0,30.01,NE,47,3.0,7.0,70,0.00,,,0.00,499,weatherlink.com 1.10,2013-09-04 18:28:00,
2013-09-04 08:43:00,82.3,72.0,30.01,ENE,70,1.0,7.0,71,0.00,,,0.00,543,weatherlink.com 1.10,2013-09-04 18:43:00,
2013-09-04 08:58:00,83.0,72.0,30.01,NE,44,3.0,7.0,70,0.00,,,0.00,598,weatherlink.com 1.10,2013-09-04 18:58:00,
2013-09-04 09:13:00,83.6,72.0,30.02,NE,36,4.0,7.0,68,0.00,,,0.00,647,weatherlink.com 1.10,2013-09-04 19:13:00,
2013-09-04 09:29:00,84.5,73.0,30.02,East,86,4.0,7.0,68,0.00,,,0.00,737,weatherlink.com 1.10,2013-09-04 19:29:00,
2013-09-04 09:44:00,85.0,73.0,30.02,North,359,5.0,7.0,67,0.00,,,0.00,754,weatherlink.com 1.10,2013-09-04 19:44:00,
2013-09-04 09:59:00,84.2,72.0,30.02,NE,44,2.0,7.0,67,0.00,,,0.00,719,weatherlink.com 1.10,2013-09-04 19:59:00,
2013-09-04 10:14:00,84.8,72.0,30.02,East,92,4.0,9.0,66,0.00,,,0.00,868,weatherlink.com 1.10,2013-09-04 20:14:00,
2013-09-04 10:29:00,85.5,73.0,30.03,NE,35,4.0,9.0,66,0.00,,,0.00,872,weatherlink.com 1.10,2013-09-04 20:29:00,
2013-09-04 10:44:00,85.6,73.0,30.02,NE,50,9.0,9.0,65,0.00,,,0.00,877,weatherlink.com 1.10,2013-09-04 20:44:00,
2013-09-04 10:59:00,85.9,73.0,30.02,NNE,26,3.0,9.0,65,0.00,,,0.00,1018,weatherlink.com 1.10,2013-09-04 20:59:00,
2013-09-04 11:14:00,84.9,72.0,30.02,East,100,2.0,9.0,66,0.00,,,0.00,1055,weatherlink.com 1.10,2013-09-04 21:14:00,
2013-09-04 11:29:00,83.4,72.0,30.01,NNE,24,6.0,8.0,68,0.00,,,0.00,473,weatherlink.com 1.10,2013-09-04 21:29:00,
2013-09-04 11:44:00,84.4,74.0,30.01,ENE,63,5.0,11.0,71,0.00,,,0.00,707,weatherlink.com 1.10,2013-09-04 21:44:00,
2013-09-04 12:00:00,83.7,74.0,30.01,ENE,78,5.0,9.0,72,0.00,,,0.00,707,weatherlink.com 1.10,2013-09-04 22:00:00,
2013-09-04 12:15:00,84.9,72.0,30.00,ENE,75,5.0,9.0,65,0.00,,,0.00,826,weatherlink.com 1.10,2013-09-04 22:15:00,
2013-09-04 12:30:00,86.3,72.0,30.00,ENE,77,5.0,7.0,63,0.00,,,0.00,935,weatherlink.com 1.10,2013-09-04 22:30:00,
2013-09-04 12:45:00,85.8,71.0,30.00,East,95,5.0,7.0,61,0.00,,,0.00,1013,weatherlink.com 1.10,2013-09-04 22:45:00,
2013-09-04 13:00:00,86.7,73.0,29.99,ENE,78,3.0,7.0,64,0.00,,,0.00,1114,weatherlink.com 1.10,2013-09-04 23:00:00,
2013-09-04 13:15:00,86.1,73.0,29.99,ENE,65,3.0,8.0,66,0.00,,,0.00,965,weatherlink.com 1.10,2013-09-04 23:15:00,
2013-09-04 13:30:00,85.6,72.0,29.98,East,92,7.0,9.0,63,0.00,,,0.00,944,weatherlink.com 1.10,2013-09-04 23:30:00,
2013-09-04 13:45:00,86.0,72.0,29.98,NE,51,5.0,8.0,64,0.00,,,0.00,923,weatherlink.com 1.10,2013-09-04 23:45:00,
2013-09-04 14:00:00,85.9,72.0,29.97,NNE,25,5.0,8.0,64,0.00,,,0.00,870,weatherlink.com 1.10,2013-09-05 00:00:00,
2013-09-04 14:15:00,86.3,72.0,29.97,ESE,104,4.0,7.0,63,0.00,,,0.00,872,weatherlink.com 1.10,2013-09-05 00:15:00,
2013-09-04 14:32:00,85.7,73.0,29.97,East,84,7.0,8.0,65,0.00,,,0.00,872,weatherlink.com 1.10,2013-09-05 00:32:00,
2013-09-04 14:46:00,85.3,73.0,29.97,ESE,105,2.0,9.0,66,0.00,,,0.00,821,weatherlink.com 1.10,2013-09-05 00:46:00,
2013-09-04 15:01:00,85.4,73.0,29.97,ESE,108,7.0,9.0,67,0.00,,,0.00,874,weatherlink.com 1.10,2013-09-05 01:01:00,
2013-09-04 15:16:00,84.2,73.0,29.96,East,83,4.0,9.0,68,0.00,,,0.00,721,weatherlink.com 1.10,2013-09-05 01:16:00,
2013-09-04 15:32:00,84.6,73.0,29.96,East,95,3.0,8.0,69,0.00,,,0.00,663,weatherlink.com 1.10,2013-09-05 01:32:00,
2013-09-04 15:47:00,83.8,73.0,29.96,ESE,110,5.0,9.0,71,0.00,,,0.00,624,weatherlink.com 1.10,2013-09-05 01:47:00,
2013-09-04 16:01:00,84.1,72.0,29.96,North,356,3.0,8.0,68,0.00,,,0.00,707,weatherlink.com 1.10,2013-09-05 02:01:00,
2013-09-04 16:18:00,82.3,70.0,29.96,ENE,78,4.0,8.0,67,0.00,,,0.00,608,weatherlink.com 1.10,2013-09-05 02:18:00,
2013-09-04 16:33:00,83.4,71.0,29.96,North,2,5.0,8.0,67,0.00,,,0.00,612,weatherlink.com 1.10,2013-09-05 02:33:00,
2013-09-04 16:47:00,81.4,72.0,29.96,NNE,14,7.0,8.0,72,0.00,,,0.00,236,weatherlink.com 1.10,2013-09-05 02:47:00,
2013-09-04 17:02:00,81.2,71.0,29.96,NE,52,3.0,8.0,72,0.00,,,0.00,350,weatherlink.com 1.10,2013-09-05 03:02:00,
2013-09-04 17:17:00,80.8,72.0,29.96,NNE,30,6.0,8.0,74,0.00,,,0.00,109,weatherlink.com 1.10,2013-09-05 03:17:00,
2013-09-04 17:32:00,80.4,72.0,29.97,NE,44,1.0,7.0,75,0.00,,,0.00,105,weatherlink.com 1.10,2013-09-05 03:32:00,
2013-09-04 17:47:00,79.8,72.0,29.97,NNE,17,2.0,5.0,76,0.00,,,0.00,51,weatherlink.com 1.10,2013-09-05 03:47:00,
2013-09-04 18:02:00,79.3,72.0,29.97,North,2,4.0,6.0,77,0.00,,,0.00,33,weatherlink.com 1.10,2013-09-05 04:02:00,
2013-09-04 18:18:00,78.8,71.0,29.97,North,359,0.0,5.0,78,0.00,,,0.00,21,weatherlink.com 1.10,2013-09-05 04:18:00,
2013-09-04 18:32:00,78.5,71.0,29.98,ENE,59,5.0,5.0,78,0.00,,,0.00,9,weatherlink.com 1.10,2013-09-05 04:32:00,
2013-09-04 18:47:00,78.4,71.0,29.98,ENE,66,2.0,5.0,78,0.00,,,0.00,0,weatherlink.com 1.10,2013-09-05 04:47:00,
2013-09-04 19:03:00,78.0,71.0,29.98,East,94,2.0,6.0,78,0.00,,,0.00,0,weatherlink.com 1.10,2013-09-05 05:03:00,
2013-09-04 19:17:00,78.1,71.0,29.99,ENE,69,4.0,7.0,78,0.00,,,0.00,0,weatherlink.com 1.10,2013-09-05 05:17:00,
2013-09-04 19:32:00,78.1,71.0,29.99,East,91,4.0,6.0,78,0.00,,,0.00,0,weatherlink.com 1.10,2013-09-05 05:32:00,
2013-09-04 19:47:00,77.9,71.0,29.99,ESE,106,2.0,6.0,79,0.00,,,0.00,0,weatherlink.com 1.10,2013-09-05 05:47:00,
2013-09-04 20:02:00,77.7,71.0,30.00,East,97,1.0,7.0,80,0.00,,,0.00,0,weatherlink.com 1.10,2013-09-05 06:02:00,
2013-09-04 20:17:00,77.6,71.0,30.00,East,91,2.0,5.0,81,0.00,,,0.00,0,weatherlink.com 1.10,2013-09-05 06:17:00,
2013-09-04 20:32:00,77.9,72.0,30.01,ENE,62,1.0,4.0,81,0.00,,,0.00,0,weatherlink.com 1.10,2013-09-05 06:32:00,